STARLINK-31666, 59572

Orbit data source: Space-Track

STARLINK-31666, 59572 is a payload satellite owned by SpaceX/Seattle (US) in LEO that was launched on Tue, 23 Apr 2024 UTC via an FALCON 9 launch vehicle from the Air Force Eastern Test Range (AFETR). Payload-class satellites include a variety of spacecraft equipped with specific instruments for various scientific and technological missions. These include communications satellites like Starlink; space stations such as the ISS; scientific satellites like the Hubble; Earth observation satellites from companies like Planet Labs, Umbra, and HawkEye 360; GPS; miniature CubeSats for education and research; and military/defense satellites.

Loading next visibility...
Identifier
59572, 2024-076J
Orbit
LEO
Country
Flag of USUS
Related business
Manufacturer
SpaceX/Seattle
Mission
Operational Commercial Communications
Bus & Motor
STARLINK V2M, Unknown motor
Mass
730 kg wet, ~700 kg dry
Launch date (UTC)
2024-04-23 (2 years ago)
Launch vehicle
FALCON 9
Launch site
Air Force Eastern Test Range (AFETR)
Object type
Payload
Rocket body
Debris
Shape & HBR
Box + 2 Pan, 17.7 m
Radar Cross Section
33.884 m², Large (>1 m²)

Expand to show TLE details & history
Last TLE update: 5 hours ago

TLE from 5 hours ago
0 STARLINK-31666
1 59572U 24076J   25311.74836267  .00009299  00000-0  34734-3 0  9995
2 59572  42.9986 330.6856 0000615 285.3130  74.7654 15.27548409 87938
Epoch: 2025-11-07T17:57Z
TLE epoch observation values (Epoch: 2025-11-07T17:57:38.534Z)
Latitude
-0°
Longitude
14.08716°
Altitude
482.808 km
Speed
7.626 km/s
True Right ascension
22h 02m 44s
True Declination
0° 00' 00"
Sunlit
Object was in daylight at epoch
Visualization orbit readout
Latitude
Unknown
Longitude
Unknown
Altitude
Unknown
Speed
Unknown
Apparent Right ascension
Unknown
Apparent Declination
Unknown
Sunlit
N/A
Visualization observer readout
Local Sidereal Time
19:27:55
Azimuth
Unknown
Elevation
Unknown
Doppler factor
Unknown
Orbital elements
Apogee altitude
485.511 km
Perigee altitude
484.667 km
Semi-major axis
6,863.226 km
Eccentricity
0.00006
Inclination
42.9986°
RAAN
330.6856°
Arg. of periapsis
285.313°
True anomaly
74.7722°
Mean anomaly
74.7654°
Eccentric anomaly
74.7688°
Mean motion
3.81725 °/min
Orbital period
94.31 mins
BSTAR
0.00034734
Loading maneuver chart data...
Computing Atmospheric mass density...
Loading historical data...
Loading historical data...
Loading historical data...
Loading historical data...
Loading historical data...
Loading historical data...
Loading historical data...

Documentation

Showing up to 5 results
|